TELSTAR 19V

Last updated on Sun Apr 12 2026 00:02:55 GMT+0000 (Coordinated Universal Time)

1 43562U 18059A 26100.79520816 -.00000278 00000+0 00000+0 0 9996 2 43562 0.0185 183.7386 0001696 260.2575 338.2998 1.00270586 28462
UTC large
Height (km)
Speed (km/s)
/
Latitude / Longitude
Inclination (degrees)
Orbital Period (minutes)
Azimuth
Elevation
Range (km)
Doppler Factor

Next 0 passes for location: London (51.5072 / 0.1276)

Sorry there are no passes over London.
TELSTAR 19V